International Skating Union - Official Site

Essent ISU World Single Distances Championships 2013
March 21-24, 2013

Draw | Lap Times | Index | World Cup

Referee: Dan  IMMERFALL  (USA)
Starter: Jouko  VESTERLUND  (FIN)
StartTime: EndTime: Air Temp: Ice Temp: Humidity:
18:53 19:14 14.4 ℃ -5.5 ℃ 42%
Result Team Pursuit Men
Rankings as of Mar 24 2013 7:14PM
Rank: No.: Team: Nation: Time: Behind: Points:
Total 8
1 201 Netherlands (42) Jan Blokhuijsen (45) Sven Kramer (52) Koen Verweij (41) Jorrit Bergsma NED NED 3:42.030.5 - 17.56 - (17.5)
1.0 - 30.76 - (13.2)
1.5 - 43.97 - (13.2)
2.0 - 57.32 - (13.3)
2.5 - 1:10.81 - (13.4)
3.0 - 1:24.62 - (13.8)
3.5 - 1:38.39 - (13.7)
4.0 - 1:52.01 - (13.6)
4.5 - 2:05.92 - (13.9)
5.0 - 2:19.39 - (13.4)
5.5 - 2:32.96 - (13.5)
6.0 - 2:46.57 - (13.6)
6.5 - 3:00.42 - (13.8)
7.0 - 3:14.18 - (13.7)
7.5 - 3:28.11 - (13.9)
8.0 - 3:42.03 - (13.9)
2 202 Korea (34) Hyung-Joon Joo (35) Cheol-Min Kim (38) Seung-Hoon Lee (36) Byung-Wook Ko KOR KOR 3:44.600.5 - 17.74 - (17.7)
1.0 - 31.01 - (13.2)
1.5 - 44.16 - (13.1)
2.0 - 57.33 - (13.1)
2.5 - 1:10.50 - (13.1)
3.0 - 1:23.80 - (13.3)
3.5 - 1:37.48 - (13.6)
4.0 - 1:51.05 - (13.5)
4.5 - 2:05.03 - (13.9)
5.0 - 2:19.21 - (14.1)
5.5 - 2:33.60 - (14.3)
6.0 - 2:48.01 - (14.4)
6.5 - 3:02.41 - (14.4)
7.0 - 3:16.54 - (14.1)
7.5 - 3:30.51 - (13.9)
8.0 - 3:44.60 - (14.0)
2.57
3 205 Poland (60) Zbigniew Brodka (62) Konrad Niedzwiedzki (63) Jan Szymanski (61) Roland Cieslak POL POL 3:45.220.5 - 17.69 - (17.6)
1.0 - 31.01 - (13.3)
1.5 - 44.40 - (13.3)
2.0 - 57.62 - (13.2)
2.5 - 1:11.12 - (13.5)
3.0 - 1:24.95 - (13.8)
3.5 - 1:38.49 - (13.5)
4.0 - 1:52.08 - (13.5)
4.5 - 2:05.83 - (13.7)
5.0 - 2:19.68 - (13.8)
5.5 - 2:33.73 - (14.0)
6.0 - 2:48.01 - (14.2)
6.5 - 3:02.15 - (14.1)
7.0 - 3:16.46 - (14.3)
7.5 - 3:31.07 - (14.6)
8.0 - 3:45.22 - (14.1)
3.19
4 203 Russia (68) Yevgeny Lalenkov (71) Ivan Skobrev (73) Denis Yuskov (66) Sergey Gryaztsov RUS RUS 3:46.590.5 - 17.92 - (17.9)
1.0 - 31.54 - (13.6)
1.5 - 45.10 - (13.5)
2.0 - 58.70 - (13.6)
2.5 - 1:12.43 - (13.7)
3.0 - 1:25.93 - (13.5)
3.5 - 1:39.57 - (13.6)
4.0 - 1:53.27 - (13.7)
4.5 - 2:07.20 - (13.9)
5.0 - 2:21.07 - (13.8)
5.5 - 2:35.14 - (14.0)
6.0 - 2:49.16 - (14.0)
6.5 - 3:03.34 - (14.1)
7.0 - 3:17.57 - (14.2)
7.5 - 3:31.99 - (14.4)
8.0 - 3:46.59 - (14.5)
4.56
5 204 Norway (54) Håvard Bøkko (56) Sverre Lunde Pedersen (57) Simen Spieler Nilsen (58) Christoffer Fagerli Rukke NOR NOR 3:48.680.5 - 17.54 - (17.5)
1.0 - 30.96 - (13.4)
1.5 - 44.46 - (13.5)
2.0 - 58.24 - (13.7)
2.5 - 1:11.75 - (13.5)
3.0 - 1:25.16 - (13.4)
3.5 - 1:38.60 - (13.4)
4.0 - 1:52.35 - (13.7)
4.5 - 2:06.53 - (14.1)
5.0 - 2:21.01 - (14.4)
5.5 - 2:35.54 - (14.5)
6.0 - 2:50.12 - (14.5)
6.5 - 3:04.52 - (14.4)
7.0 - 3:19.10 - (14.5)
7.5 - 3:33.82 - (14.7)
8.0 - 3:48.68 - (14.8)
6.65
6 207 Germany (16) Alexej Baumgärtner (17) Patrick Beckert (23) Marco Weber (21) Robert Lehmann GER GER 3:48.830.5 - 18.10 - (18.1)
1.0 - 31.59 - (13.4)
1.5 - 45.07 - (13.4)
2.0 - 58.52 - (13.4)
2.5 - 1:12.11 - (13.5)
3.0 - 1:25.93 - (13.8)
3.5 - 1:39.66 - (13.7)
4.0 - 1:53.73 - (14.0)
4.5 - 2:08.06 - (14.3)
5.0 - 2:22.59 - (14.5)
5.5 - 2:36.99 - (14.4)
6.0 - 2:51.39 - (14.4)
6.5 - 3:05.93 - (14.5)
7.0 - 3:20.06 - (14.1)
7.5 - 3:34.33 - (14.2)
8.0 - 3:48.83 - (14.5)
6.80
7 206 Canada (3) Jordan Belchos (9) Lucas Makowsky (10) Denny Morrison (4) Tyler Derraugh CAN CAN 3:49.000.5 - 17.55 - (17.5)
1.0 - 30.62 - (13.0)
1.5 - 43.66 - (13.0)
2.0 - 57.02 - (13.3)
2.5 - 1:10.36 - (13.3)
3.0 - 1:23.76 - (13.4)
3.5 - 1:37.56 - (13.8)
4.0 - 1:51.57 - (14.0)
4.5 - 2:05.78 - (14.2)
5.0 - 2:20.22 - (14.4)
5.5 - 2:34.69 - (14.4)
6.0 - 2:49.41 - (14.7)
6.5 - 3:04.17 - (14.7)
7.0 - 3:19.08 - (14.9)
7.5 - 3:33.87 - (14.7)
8.0 - 3:49.00 - (15.1)
6.97
8 208 Italy (24) Matteo Anesi (26) Mirko Giacomo Nenzi (27) Luca Stefani (25) Marco Cignini ITA ITA 3:53.080.5 - 17.60 - (17.6)
1.0 - 31.44 - (13.8)
1.5 - 45.20 - (13.7)
2.0 - 59.17 - (13.9)
2.5 - 1:13.02 - (13.8)
3.0 - 1:27.00 - (13.9)
3.5 - 1:41.25 - (14.2)
4.0 - 1:55.59 - (14.3)
4.5 - 2:10.16 - (14.5)
5.0 - 2:24.50 - (14.3)
5.5 - 2:38.73 - (14.2)
6.0 - 2:53.25 - (14.5)
6.5 - 3:08.06 - (14.8)
7.0 - 3:22.84 - (14.7)
7.5 - 3:37.70 - (14.8)
8.0 - 3:53.08 - (15.3)
11.05